Wind_Speed
48 48 47 47 46 46 45 44 43 42 41 41 41 40 39 39 39 38 37 37 37 37 36 36 36 37 38 38 39 40 41 42 43 44 43 43 43 44 44 45 45 46 47
46 47 47 47 46 46 46 46 45 44 43 43 43 42 42 41 40 39 39 39 39 38 38 38 39 39 40 41 41 42 43 43 45 45 45 44 43 43 45 45 46 47 47
46 46 46 46 46 46 46 46 46 46 45 45 44 44 43 42 42 41 41 40 40 40 40 40 41 42 42 43 43 44 45 45 45 46 46 46 45 44 44 45 46 46 47
45 45 45 46 45 46 46 46 47 46 46 46 45 45 44 43 43 42 42 42 42 42 42 42 43 43 44 44 45 46 46 46 46 46 46 47 47 46 45 44 45 45 46
45 45 46 46 45 45 46 46 47 47 47 47 47 46 45 45 44 43 43 43 43 43 43 43 44 44 45 45 46 46 47 46 46 46 46 46 47 47 47 45 45 45 46
43 45 45 46 46 46 46 46 47 47 47 47 47 47 46 46 45 44 44 44 44 44 44 45 45 45 46 46 47 47 46 46 46 46 46 46 46 45 46 45 45 45 46
43 43 44 45 46 46 47 47 48 48 48 48 48 47 47 46 46 45 45 45 45 45 46 46 47 47 47 47 47 46 46 46 46 46 46 45 45 45 45 45 45 45 46
43 43 44 45 46 47 47 47 47 48 48 48 48 48 48 47 47 47 47 47 47 47 47 47 47 47 46 46 46 46 46 45 45 45 45 44 44 44 44 45 45 45 45
42 43 44 45 46 47 47 47 47 48 48 48 48 48 48 47 47 48 47 47 47 47 47 47 47 46 47 46 45 45 45 44 44 43 43 43 43 43 44 44 44 44 43
41 42 44 45 46 47 47 47 47 47 47 47 47 47 47 47 47 47 47 47 47 46 46 47 46 46 45 44 44 44 43 43 42 42 42 42 42 42 43 43 43 42 41
40 42 42 44 45 46 46 47 47 47 46 46 46 46 46 46 46 46 46 46 46 46 46 45 45 44 44 43 43 42 42 41 41 41 41 41 41 41 41 41 40 40 40
39 40 41 42 43 44 45 45 46 46 46 46 45 45 45 45 45 45 45 45 45 45 44 43 42 42 42 42 41 40 39 39 39 39 39 39 40 40 40 39 39 39 39
35 37 39 40 41 41 42 44 44 45 45 45 45 45 45 44 44 44 44 44 43 43 42 42 41 41 41 40 39 38 38 38 38 38 38 38 38 38 38 38 37 37 37
33 35 36 37 38 39 40 41 41 42 43 43 44 44 44 44 43 42 42 42 41 41 40 40 40 39 38 38 37 37 36 36 36 36 36 37 37 37 37 36 36 36 36
32 33 34 35 36 37 38 38 39 39 40 40 41 41 41 41 40 40 39 39 39 39 38 38 37 36 36 36 35 35 35 35 35 35 35 36 35 35 35 35 35 35 35
31 32 33 33 34 35 36 37 37 37 38 38 38 38 38 38 38 37 37 37 37 36 36 36 35 34 34 34 34 34 33 33 33 34 34 34 34 34 34 34 34 34 35
30 30 31 32 32 33 33 34 35 35 35 35 35 35 35 35 35 35 35 35 34 34 34 33 33 33 32 32 32 32 32 32 32 33 33 33 33 33 33 34 34 35 35
29 29 29 29 30 30 30 31 32 32 32 32 32 32 32 32 32 32 32 32 32 31 31 31 31 30 30 30 30 30 30 31 32 32 32 32 33 33 33 34 35 35 36
27 27 28 27 27 28 28 28 29 29 30 30 30 30 30 30 30 30 30 30 30 29 29 29 28 28 28 29 29 29 29 30 31 32 32 32 33 33 34 34 35 36 36
26 25 26 26 26 26 26 26 27 27 28 28 28 28 28 28 28 28 28 28 28 27 27 27 27 27 27 28 28 29 29 30 31 31 32 32 33 33 34 35 36 36 37
24 24 25 25 25 25 25 25 26 26 26 26 26 27 27 27 27 27 26 26 26 26 26 26 26 26 27 27 28 29 29 30 31 31 32 33 34 34 35 36 37 37 38
24 24 24 24 25 25 25 25 25 25 25 25 25 26 26 26 25 25 25 25 25 25 25 25 25 26 26 27 28 29 29 30 31 32 33 34 35 35 36 37 38 39 40
24 24 24 24 25 25 25 25 25 25 25 25 25 25 25 25 24 24 24 24 24 24 25 25 25 26 26 27 28 29 30 31 32 33 34 34 35 36 37 38 39 40 41
24 24 24 25 25 25 24 24 24 24 24 24 24 24 24 24 24 24 24 24 24 25 25 25 26 26 27 28 29 30 31 32 33 33 34 35 36 37 38 39 40 41 42
24 24 25 25 24 24 24 23 24 24 24 24 24 24 24 24 24 25 25 25 25 25 25 26 26 27 28 29 30 31 31 32 33 34 35 36 37 38 39 40 41 42 43
24 24 24 24 24 24 24 24 24 24 24 24 24 24 24 25 25 25 25 26 26 26 26 27 27 28 29 30 30 31 32 33 34 35 36 37 38 39 40 41 42 43 44
Wind_Direction
232 233 233 233 234 235 235 237 239 241 244 246 249 252 255 258 261 264 267 270 273 275 277 280 283 284 286 288 289 290 292 293 293 294 295 296 297 298 297 298 298 298 298
233 234 234 234 235 236 237 238 239 241 243 246 248 251 255 258 261 263 266 269 271 274 276 279 281 283 285 287 288 289 291 292 292 293 294 294 295 296 297 298 299 299 298
234 236 236 236 236 237 239 239 239 241 243 245 248 251 254 257 260 263 265 268 271 273 276 278 280 282 284 286 287 289 290 291 292 293 294 295 295 295 296 298 298 298 298
236 237 238 239 239 239 240 241 242 243 245 247 249 252 255 257 260 262 265 267 270 272 274 277 279 281 283 285 286 288 289 291 292 293 294 296 297 297 297 298 298 298 298
239 239 239 240 241 241 242 243 244 245 247 248 250 252 254 257 259 261 264 267 270 272 274 276 278 280 283 284 286 288 289 291 292 293 294 296 297 298 299 299 299 299 299
239 239 240 240 241 242 243 244 244 246 248 250 252 254 255 257 260 262 265 267 270 273 275 277 279 281 283 285 286 288 289 291 292 293 295 296 297 298 299 299 300 300 300
239 239 240 241 242 243 244 245 246 247 248 250 252 254 256 258 260 262 264 267 270 272 275 277 279 281 283 285 286 288 289 290 292 293 295 296 297 298 299 300 301 301 302
240 240 241 242 243 244 245 247 248 249 250 252 253 255 257 258 260 262 264 267 270 272 274 277 279 281 283 285 286 288 289 290 292 293 294 295 297 298 299 300 301 302 302
241 241 242 243 244 245 247 248 249 250 252 253 254 256 257 259 261 263 265 268 270 272 274 276 278 280 283 284 286 287 289 290 292 293 294 295 297 297 299 300 301 303 303
243 243 244 245 245 246 247 249 250 251 253 254 255 257 259 260 262 264 266 268 271 273 275 277 279 281 283 284 286 287 289 290 291 293 294 295 296 297 299 301 302 303 304
243 244 244 246 247 248 249 250 251 252 253 254 256 257 259 261 263 265 267 269 271 274 276 277 279 281 283 285 286 287 289 290 291 292 293 294 296 298 299 301 302 303 304
243 244 246 248 249 249 250 251 252 253 254 255 256 258 260 262 264 265 267 269 271 273 276 278 279 281 283 285 286 287 288 289 291 292 293 295 297 298 299 301 302 303 304
243 245 246 248 249 250 251 252 253 254 255 257 258 259 260 262 264 267 268 270 272 274 276 277 280 281 283 284 285 286 288 289 290 291 293 295 297 298 299 301 302 303 304
245 246 248 249 251 252 253 254 255 256 257 258 259 260 262 263 265 267 269 271 272 274 276 277 279 280 281 283 284 285 287 289 290 292 294 296 297 298 299 300 301 302 304
247 248 249 250 251 253 254 255 256 257 258 259 260 262 263 264 265 266 268 270 271 273 274 276 277 279 280 281 283 285 287 289 291 292 294 296 297 299 300 300 301 302 304
249 250 251 252 253 254 254 255 256 257 258 259 260 261 262 263 264 265 267 269 270 271 273 274 276 277 279 281 283 285 287 289 291 293 294 296 297 299 300 300 302 303 304
250 252 253 253 254 255 255 255 256 256 258 259 259 260 261 262 263 264 266 267 268 270 271 273 274 276 278 281 283 286 288 289 291 293 294 296 297 299 300 301 302 303 304
250 251 253 253 254 254 254 255 255 256 256 256 257 258 259 260 262 264 265 266 267 269 270 272 274 276 278 281 284 286 288 290 292 293 294 296 297 300 301 302 303 303 304
252 252 253 254 254 254 254 256 256 256 256 256 257 258 259 260 261 263 264 266 267 268 270 272 274 276 279 281 284 286 288 290 292 293 294 296 298 300 301 302 303 304 304
252 252 252 254 255 255 256 257 257 257 257 257 257 257 258 259 260 262 264 265 267 269 270 272 274 276 279 281 284 286 289 291 292 294 295 297 299 300 301 302 304 305 305
252 252 252 253 254 255 256 257 257 257 257 258 258 257 258 259 260 262 264 265 267 269 270 271 274 276 279 282 284 287 289 291 293 295 296 298 300 301 302 303 304 305 307
252 253 253 254 255 256 257 258 258 258 258 258 258 258 258 259 260 262 264 266 267 268 270 272 274 277 280 283 285 287 290 292 293 295 297 299 300 301 302 304 305 306 307
253 254 255 255 256 257 258 259 259 259 259 259 258 257 258 259 260 262 264 266 266 268 270 273 276 278 281 284 286 288 290 292 294 295 297 298 300 301 303 304 305 307 308
255 256 256 256 256 256 257 258 259 259 258 258 258 258 258 260 261 262 264 266 267 269 271 274 277 279 282 285 287 289 290 293 294 296 297 299 300 302 303 305 306 307 308
256 256 256 255 255 256 258 259 260 260 259 258 257 258 260 260 261 263 265 267 268 270 272 275 278 281 283 285 287 289 292 294 295 296 298 300 301 303 304 305 307 308 309
257 258 257 255 255 257 259 260 261 261 259 258 258 259 260 261 262 264 266 267 269 270 273 276 279 282 284 286 288 290 293 294 296 297 299 300 302 303 305 306 307 308 309
Height
5779 5785 5789 5793 5798 5801 5805 5808 5811 5814 5817 5819 5821 5823 5824 5826 5827 5827 5828 5828 5829 5828 5828 5828 5827 5826 5825 5823 5821 5819 5817 5815 5812 5810 5808 5806 5803 5800 5796 5792 5789 5786 5782
5772 5777 5781 5785 5789 5793 5797 5800 5803 5806 5809 5811 5813 5815 5817 5818 5819 5820 5820 5821 5821 5821 5820 5820 5819 5818 5817 5815 5813 5811 5809 5807 5804 5801 5799 5798 5797 5791 5787 5783 5780 5776 5772
5765 5769 5773 5778 5781 5785 5788 5791 5795 5797 5800 5803 5805 5807 5809 5810 5811 5812 5812 5812 5813 5813 5812 5812 5811 5809 5808 5807 5804 5802 5800 5798 5795 5791 5789 5787 5786 5784 5781 5776 5771 5766 5762
5758 5762 5766 5769 5773 5776 5780 5783 5786 5789 5791 5794 5796 5798 5800 5802 5803 5803 5804 5804 5804 5804 5804 5803 5802 5801 5799 5798 5795 5793 5790 5788 5786 5782 5779 5776 5774 5772 5771 5768 5762 5757 5753
5749 5753 5757 5761 5764 5768 5771 5774 5777 5780 5782 5785 5787 5789 5791 5793 5794 5795 5795 5795 5795 5795 5795 5794 5793 5791 5790 5788 5786 5783 5781 5778 5775 5773 5770 5766 5763 5760 5758 5757 5753 5748 5743
5740 5744 5748 5752 5755 5759 5762 5765 5767 5770 5773 5775 5778 5780 5782 5783 5785 5786 5786 5786 5786 5785 5785 5784 5783 5782 5780 5778 5776 5774 5771 5768 5765 5763 5760 5757 5754 5750 5747 5745 5742 5738 5733
5732 5735 5739 5743 5746 5749 5752 5755 5758 5761 5763 5766 5768 5770 5772 5774 5775 5776 5776 5777 5776 5776 5775 5774 5773 5772 5770 5768 5766 5764 5761 5758 5756 5753 5750 5746 5743 5740 5737 5734 5731 5727 5723
5723 5726 5730 5733 5736 5739 5742 5745 5748 5751 5754 5756 5758 5760 5762 5764 5765 5766 5766 5767 5766 5766 5765 5764 5763 5761 5760 5758 5756 5754 5751 5748 5746 5743 5740 5736 5733 5730 5726 5723 5720 5716 5712
5714 5717 5720 5723 5726 5729 5732 5735 5738 5741 5743 5746 5748 5750 5752 5753 5754 5755 5756 5756 5756 5756 5755 5754 5753 5751 5750 5748 5746 5743 5741 5738 5736 5733 5730 5727 5723 5720 5716 5713 5709 5706 5702
5706 5708 5711 5714 5717 5720 5723 5725 5728 5731 5733 5736 5738 5740 5741 5743 5744 5745 5745 5745 5745 5745 5744 5743 5742 5741 5739 5737 5735 5733 5731 5728 5726 5723 5720 5717 5714 5710 5707 5703 5699 5695 5691
5697 5700 5702 5705 5708 5711 5713 5716 5718 5721 5723 5726 5728 5729 5731 5732 5733 5734 5734 5735 5734 5734 5734 5733 5732 5730 5729 5727 5725 5723 5721 5718 5716 5713 5710 5707 5704 5701 5697 5693 5689 5685 5681
5689 5691 5694 5696 5699 5701 5704 5706 5708 5711 5713 5715 5717 5719 5720 5722 5723 5723 5724 5724 5724 5724 5723 5722 5721 5720 5719 5717 5715 5713 5711 5709 5707 5704 5701 5698 5695 5691 5688 5684 5680 5676 5672
5681 5683 5685 5687 5690 5692 5694 5696 5698 5701 5703 5705 5707 5708 5710 5711 5712 5713 5713 5713 5713 5713 5713 5712 5711 5710 5709 5707 5705 5704 5702 5700 5697 5695 5692 5689 5686 5682 5679 5675 5671 5667 5663
5673 5675 5677 5679 5681 5683 5685 5687 5689 5691 5693 5695 5697 5698 5700 5701 5702 5703 5703 5703 5703 5703 5703 5702 5701 5700 5699 5698 5696 5695 5693 5691 5688 5686 5683 5680 5677 5673 5670 5666 5662 5658 5654
5666 5667 5669 5670 5672 5674 5676 5678 5680 5682 5683 5685 5687 5688 5690 5691 5692 5693 5693 5693 5694 5693 5693 5693 5692 5691 5690 5689 5687 5686 5684 5682 5679 5677 5674 5671 5668 5664 5661 5657 5653 5650 5646
5659 5660 5661 5663 5664 5666 5667 5669 5671 5673 5674 5676 5677 5679 5680 5681 5682 5683 5684 5684 5684 5684 5684 5683 5683 5682 5681 5680 5679 5677 5675 5673 5671 5668 5665 5663 5659 5656 5652 5649 5645 5641 5637
5651 5653 5654 5655 5656 5658 5659 5661 5662 5664 5665 5667 5668 5670 5671 5672 5673 5674 5674 5675 5675 5675 5675 5674 5674 5673 5673 5671 5670 5668 5667 5665 5662 5660 5657 5654 5651 5647 5644 5640 5637 5633 5629
5644 5645 5647 5648 5649 5650 5652 5653 5654 5655 5657 5658 5660 5661 5662 5663 5664 5665 5666 5666 5666 5666 5666 5666 5666 5665 5664 5663 5662 5660 5658 5656 5654 5652 5649 5646 5642 5639 5636 5632 5628 5624 5620
5637 5638 5640 5641 5642 5643 5644 5646 5647 5648 5649 5650 5652 5653 5654 5655 5656 5657 5657 5658 5658 5658 5658 5658 5657 5657 5656 5655 5654 5652 5650 5648 5646 5643 5640 5637 5634 5631 5627 5624 5620 5616 5611
5630 5632 5633 5634 5636 5637 5638 5639 5640 5641 5642 5643 5644 5645 5646 5647 5648 5649 5649 5650 5650 5650 5650 5650 5650 5649 5648 5647 5646 5644 5642 5640 5638 5635 5632 5629 5626 5622 5618 5615 5611 5606 5602
5624 5625 5627 5628 5629 5630 5631 5632 5633 5634 5635 5636 5637 5638 5639 5640 5641 5641 5642 5642 5642 5643 5643 5642 5642 5641 5641 5639 5638 5636 5634 5632 5630 5627 5624 5621 5617 5614 5610 5606 5602 5597 5592
5618 5619 5620 5621 5622 5624 5624 5625 5626 5627 5628 5628 5629 5630 5631 5632 5633 5634 5634 5635 5635 5635 5635 5635 5634 5634 5633 5632 5630 5628 5626 5624 5621 5619 5615 5612 5609 5605 5601 5597 5592 5588 5583
5612 5613 5614 5615 5616 5617 5618 5618 5619 5620 5621 5622 5623 5623 5624 5625 5626 5627 5627 5628 5628 5628 5628 5627 5627 5626 5625 5624 5622 5620 5618 5616 5613 5610 5607 5603 5600 5596 5592 5587 5583 5578 5573
5605 5606 5607 5608 5609 5610 5611 5612 5613 5613 5614 5615 5616 5617 5618 5618 5619 5620 5620 5621 5621 5621 5621 5620 5620 5619 5617 5616 5614 5612 5610 5607 5604 5601 5598 5595 5591 5587 5582 5578 5573 5568 5563
5599 5600 5601 5602 5603 5604 5604 5605 5606 5606 5607 5608 5609 5610 5611 5611 5612 5613 5613 5613 5613 5613 5613 5613 5612 5611 5609 5608 5606 5604 5601 5599 5596 5592 5589 5586 5582 5577 5573 5568 5563 5558 5552
5592 5593 5594 5595 5596 5597 5598 5598 5599 5599 5600 5601 5602 5603 5604 5604 5605 5605 5606 5606 5606 5605 5605 5604 5604 5602 5601 5599 5597 5595 5592 5590 5587 5583 5580 5576 5572 5567 5563 5558 5552 5547 5541